Atlantic - Newfoundland: Past 24 Hour Conditions

 

Burgeo

01:30 AM NDT 15 September 2014
This table is a summary of hourly weather conditions for the past 24 hours.
Date / Time
(NDT)
Wind(knots) Conditions Visibility(km) Pressure(kPa) Air tempC) Relative humidity(%) Dew pointC)
15 September 2014
1:30 ENE 8 N/A N/A 101.7 13 86 10
0:30 E 13 gust 18 N/A N/A 101.7 13 86 10
14 September 2014
23:30 E 14 gust 23 N/A N/A 101.7 13 85 11
22:30 E 16 gust 21 N/A N/A 101.7 13 88 11
21:30 ESE 20 gust 28 N/A N/A 101.7 13 90 11
20:30 ESE 21 gust 27 N/A N/A 101.7 13 91 11
19:30 ESE 18 gust 23 N/A N/A 101.8 13 92 11
18:30 ESE 16 gust 22 N/A N/A 101.8 13 88 11
17:30 ESE 17 N/A N/A 101.8 13 90 12
16:30 SE 20 N/A N/A 101.9 13 89 12
15:30 SE 16 gust 23 N/A N/A 101.9 13 88 11
14:30 SSE 15 N/A N/A 102.0 14 90 12
13:30 SSE 17 N/A N/A 102.1 13 92 12
12:30 ESE 13 N/A N/A 102.2 13 89 11
11:30 ESE 11 N/A N/A 102.3 13 81 10
10:30 SE 11 gust 17 N/A N/A 102.4 14 72 9
9:30 SE 11 gust 17 N/A N/A 102.5 14 72 9
8:30 SE 12 N/A N/A 102.6 13 78 9
7:30 ESE 18 gust 23 N/A N/A 102.5 13 78 9
6:30 SSE 14 gust 19 N/A N/A 102.6 13 72 8
5:30 ESE 10 N/A N/A 102.7 12 79 8
4:30 E 7 N/A N/A 102.7 11 77 7
3:30 ENE 4 N/A N/A 102.7 11 69 6
2:30 ENE 9 N/A N/A 102.7 11 66 5
1:30 ENE 7 N/A N/A 102.9 10 65 4
 
Map of Atlantic - Newfoundland marine weather areas Southwestern Grand Banks - 44138 Banquereau - 44139 Tail of the Bank - 44140 Nickerson Bank - 44251 Northeast Burgeo Bank - 44255 Blanc-Sablon Airport Cap Whittle Chevery Natashquan Airport Heath Point Miscou Island Grand Étang Ingonish Beach North Mountain St.Paul Island J.A. Douglas McCurdy Sydney Airport Charlottetown Airport East Point North Cape Argentia Bonavista Burgeo Cape Race Corner Brook Daniel's Harbour Englee Ferolle Point La Scie Port aux Basques Rocky Harbour Sagona Island St. Anthony Airport St. John's Int'l Airport St. Lawrence Stephenville Airport Twillingate Winterland Wreckhouse Cartwright Airport Mary's Harbour Grates Cove Pool's Island Marticot Island Long Pond Îles de la Madeleine Airport
Legend: buoyBuoy land stationLand Station